Location: Chillicothe
(39.7950°N, 93.5520°W)
Time: 11:41:06
(UTC-06:00)

Altair - Pass Details

Date: 27 October 2019
Orbit: 1502 x 1682 km, 47.2° (Epoch: 20 November)

Event Time Altitude Azimuth Distance (km) Brightness Sun altitude
Rises 18:41:20 0° 291° (WNW) 4,868 11.2 -5.1°
Reaches altitude 10° 18:45:39 10° 276° (W) 3,902 11.1 -5.9°
Maximum altitude 18:52:00 19° 235° (SW) 3,246 10.3 -7.1°
Drops below altitude 10° 18:58:26 10° 195° (SSW) 3,932 10.0 -8.3°
Sets 19:02:51 0° 179° (S) 4,917 10.3 -9.2°
